Wind_Speed
13 13 14 14 15 16 15 15 14 14 13 13 14 15 15 16 17 17 17 17 18 18 18 19 20 20 20 21 23 23 23 23 24 23 23 23 24 25 26 27 27 28 28
12 11 12 13 14 15 15 15 14 14 14 14 15 15 16 16 17 17 17 17 17 17 18 19 19 20 20 21 22 23 23 23 22 23 23 24 24 26 27 27 27 27 28
10 10 11 11 12 13 15 15 14 14 15 15 16 16 16 16 17 17 17 17 17 18 19 19 19 20 20 20 21 22 22 22 22 23 24 25 26 26 27 27 27 27 28
11 11 11 11 12 14 14 14 14 14 15 16 16 16 16 17 17 18 17 17 18 19 19 19 19 20 20 21 21 21 21 22 23 24 25 25 26 26 27 27 27 27 28
12 12 13 13 14 14 14 14 15 15 15 16 16 17 17 17 18 17 18 18 18 19 19 20 20 20 21 21 21 22 22 23 24 25 25 25 25 26 25 26 26 26 26
13 13 14 15 16 15 15 15 15 16 17 17 17 16 16 17 18 18 19 19 19 19 19 20 20 21 21 21 22 23 24 24 24 25 25 24 24 25 25 26 26 26 26
15 15 16 15 15 15 15 16 16 16 17 17 16 16 16 17 18 19 20 19 19 19 19 20 20 21 21 22 22 23 23 24 24 23 23 23 23 24 25 25 26 26 26
15 16 15 14 15 16 16 16 16 16 16 16 17 18 18 18 19 20 20 19 20 20 20 20 21 21 22 22 23 23 24 23 23 22 22 23 23 24 24 24 24 25 25
16 16 16 16 16 16 16 16 17 17 17 17 17 17 18 19 20 20 20 20 20 20 20 21 22 22 23 23 23 23 23 23 23 22 22 23 23 23 23 23 23 24 25
16 16 15 15 15 16 17 17 17 16 16 17 17 17 18 18 19 19 19 19 19 20 21 22 22 22 23 22 22 22 23 24 24 23 23 23 23 23 24 24 24 24 25
15 15 15 15 16 16 17 17 17 17 16 17 17 17 17 17 17 18 18 18 19 19 20 21 22 22 22 22 22 23 23 24 24 23 23 23 24 24 24 25 24 25 25
15 16 16 16 16 16 16 17 16 16 15 15 15 16 16 17 17 18 18 18 18 19 20 20 21 21 21 21 22 22 22 22 23 23 23 23 23 23 24 24 25 25 25
16 16 17 17 16 16 17 16 16 16 16 15 15 16 17 17 18 18 18 18 19 19 19 19 20 20 21 21 21 22 22 22 23 23 23 23 23 23 24 24 25 25 26
17 16 17 16 17 17 16 16 16 16 16 16 16 17 17 17 18 18 18 18 19 18 18 19 20 20 21 22 22 22 22 22 22 22 22 22 23 23 23 23 24 25 26
17 17 17 17 17 17 17 17 17 16 17 17 17 18 18 18 18 18 18 18 18 18 18 19 19 20 21 22 22 22 23 23 23 22 22 22 23 23 23 23 24 25 25
17 17 17 17 17 17 16 16 17 17 17 18 18 18 18 18 17 17 17 17 17 17 18 19 19 19 20 21 21 22 22 22 22 21 21 22 22 23 23 24 24 24 25
17 17 17 17 17 16 16 16 17 17 18 18 18 18 18 17 17 17 17 17 17 18 18 19 19 19 20 20 21 21 21 22 21 21 21 21 22 23 23 24 23 24 24
18 18 17 17 17 17 16 17 18 18 17 17 17 17 17 17 16 17 17 17 18 18 18 18 19 19 19 20 21 21 21 22 22 22 21 21 21 22 23 22 22 23 23
19 18 18 18 17 17 17 17 18 18 17 17 17 16 16 16 16 16 17 17 17 17 17 18 18 19 20 20 21 22 22 22 22 22 21 21 21 22 22 21 21 22 23
19 18 18 18 17 17 17 17 17 18 17 17 16 16 16 16 16 17 17 18 17 17 17 17 18 19 19 20 21 21 21 21 22 22 21 21 22 22 21 21 21 21 22
18 18 18 18 18 18 17 17 17 17 17 17 16 16 17 17 17 17 18 18 17 16 17 17 18 19 19 20 21 21 21 21 21 21 20 21 22 22 21 21 21 21 21
17 17 17 18 17 16 16 17 16 16 16 17 17 17 17 17 17 17 17 17 16 17 17 18 19 19 20 21 20 20 20 20 20 19 19 20 21 21 21 21 21 21 20
16 17 17 16 17 16 16 16 17 17 17 18 18 18 18 18 17 17 18 17 17 17 18 19 20 20 20 20 20 20 20 19 19 19 19 20 21 21 21 21 21 21 21
16 16 16 16 17 16 17 17 17 17 18 18 18 17 17 18 17 17 17 17 18 18 19 19 19 19 19 19 19 19 19 19 19 20 19 20 21 21 20 20 21 21 20
16 16 17 17 17 17 17 17 17 17 17 17 18 18 18 18 18 17 17 17 18 19 19 19 19 19 18 18 18 18 18 19 19 19 19 20 20 19 19 20 20 20 20
16 16 17 17 17 17 17 17 17 17 17 17 17 18 18 18 18 17 18 18 18 18 18 18 18 18 17 17 18 18 18 18 18 18 18 19 19 19 18 19 20 20 19
Wind_Direction
279 276 275 277 277 280 284 284 284 281 276 276 281 285 287 289 289 288 288 288 288 288 289 290 292 294 295 296 296 296 295 296 296 296 295 293 291 290 288 286 284 282 282
284 281 278 276 276 279 282 282 282 278 275 277 280 281 284 286 288 289 291 293 293 292 293 293 294 296 297 298 299 298 296 296 297 297 297 296 295 293 292 290 288 285 283
287 286 282 279 280 282 282 283 281 280 278 277 278 279 282 286 288 290 294 295 295 296 297 296 296 297 300 301 303 303 300 298 297 298 298 298 296 295 293 292 289 288 286
287 284 282 284 284 284 283 283 283 280 279 278 277 278 283 286 289 292 293 294 295 296 299 300 300 299 299 301 302 303 301 300 299 299 300 300 299 298 296 294 292 290 289
291 288 283 286 288 287 286 286 287 286 284 282 280 279 283 287 290 292 292 292 294 297 299 300 301 302 302 303 302 303 302 301 301 301 302 302 300 299 297 296 295 293 291
286 289 290 291 290 291 292 290 290 288 285 284 284 285 286 288 289 291 291 292 294 297 299 301 302 303 304 306 305 304 304 302 302 302 302 301 300 300 300 301 299 296 293
283 287 290 293 296 294 293 292 291 290 289 287 285 285 287 288 289 292 292 292 294 296 298 300 301 303 306 306 305 306 306 305 304 303 304 304 303 302 302 303 302 298 297
286 286 286 291 293 295 296 296 295 293 292 291 287 287 287 289 292 294 294 294 294 294 296 299 301 303 304 304 304 306 307 308 307 306 305 305 305 305 306 306 303 301 300
285 284 287 288 289 290 291 294 294 293 291 289 289 290 291 292 294 295 296 295 294 294 295 297 300 302 303 303 305 307 308 308 308 308 307 305 306 307 308 308 307 306 303
287 285 284 287 290 291 292 293 293 292 294 295 295 295 296 296 295 296 297 298 296 295 296 298 301 302 303 303 304 306 306 308 309 309 307 306 306 307 308 309 308 308 307
287 287 286 290 293 294 294 294 294 295 296 296 297 297 297 297 297 298 299 300 299 298 298 298 300 302 303 304 306 307 306 307 309 309 307 305 305 307 310 310 311 311 310
285 285 285 286 289 292 294 295 294 294 295 295 297 298 299 300 300 299 300 300 301 301 301 301 302 304 305 306 308 309 307 307 310 310 308 306 306 308 311 313 311 311 312
284 284 282 283 285 290 292 292 292 292 293 294 297 299 301 302 300 300 300 301 302 303 304 304 305 307 308 309 309 310 309 309 310 309 308 308 308 309 310 313 313 313 314
283 279 276 278 283 285 287 289 290 290 290 293 296 298 299 300 300 300 301 301 303 303 305 307 307 308 310 311 311 310 311 312 312 310 309 308 308 310 311 312 313 314 314
280 278 277 279 282 284 286 289 290 289 290 294 297 297 298 299 302 303 305 304 304 302 305 308 309 310 313 314 313 313 313 314 314 312 311 309 310 311 311 311 312 313 314
280 280 280 281 283 284 286 289 289 290 291 295 296 297 298 299 302 306 306 306 305 304 305 309 312 312 313 315 314 314 316 316 316 314 313 312 312 313 313 313 314 315 316
282 283 282 282 283 283 284 286 288 290 291 293 295 296 298 299 302 305 306 307 307 305 306 309 311 313 315 317 319 319 319 321 320 317 316 316 316 316 317 317 316 317 318
281 281 281 280 281 282 284 285 288 289 290 292 294 295 298 299 301 304 306 308 307 305 305 307 310 313 316 319 320 321 320 321 322 321 320 320 321 321 322 321 320 320 321
279 280 279 278 276 278 282 284 286 289 291 293 294 294 296 297 299 303 306 308 307 306 306 308 310 313 316 318 320 321 321 321 322 322 321 322 323 325 326 325 324 324 324
276 277 277 274 273 275 278 282 286 289 289 291 292 293 294 295 297 301 305 305 305 305 306 308 311 313 315 318 319 320 321 321 323 323 322 322 325 327 328 328 327 327 326
274 275 275 273 272 273 278 282 284 286 288 289 290 291 292 294 296 299 302 302 303 305 307 309 312 313 314 317 319 320 321 321 322 324 325 325 326 327 327 328 329 330 329
274 273 272 272 273 275 278 280 281 284 287 289 289 288 290 293 294 296 297 299 300 303 305 307 311 313 313 316 318 319 322 324 325 325 326 326 327 328 327 327 329 329 329
272 271 271 271 274 277 279 281 281 282 285 289 290 290 290 292 293 294 296 296 298 302 305 308 311 312 314 316 317 319 321 323 325 326 326 326 327 328 328 329 330 330 330
271 272 274 275 278 279 279 281 282 282 283 286 288 289 289 292 293 294 297 297 298 300 304 308 311 313 314 314 316 320 322 323 326 327 327 328 328 329 329 330 332 333 333
272 272 274 276 278 280 281 282 282 284 286 287 289 289 288 290 291 292 293 296 298 301 304 307 308 310 313 314 317 321 324 326 327 327 329 331 332 330 329 331 333 334 335
272 272 272 273 277 279 280 280 280 283 285 286 289 290 289 289 289 290 292 295 298 301 304 306 307 309 311 314 316 320 324 327 329 330 332 334 335 334 333 333 335 337 337
Height
5781 5780 5780 5780 5779 5779 5778 5778 5777 5777 5777 5777 5776 5776 5775 5775 5774 5773 5771 5770 5769 5768 5766 5764 5763 5760 5758 5755 5753 5751 5748 5746 5744 5742 5739 5737 5735 5733 5731 5729 5727 5725 5724
5778 5777 5776 5776 5775 5775 5774 5774 5773 5773 5773 5772 5772 5772 5771 5770 5769 5768 5767 5765 5764 5763 5761 5759 5757 5755 5752 5750 5747 5745 5742 5740 5738 5736 5733 5730 5728 5725 5723 5721 5719 5717 5715
5774 5773 5773 5772 5771 5771 5770 5770 5769 5769 5768 5768 5767 5767 5766 5766 5765 5764 5762 5761 5759 5758 5756 5753 5751 5749 5747 5744 5742 5739 5736 5734 5732 5729 5727 5724 5721 5718 5715 5713 5710 5708 5706
5771 5771 5770 5769 5768 5767 5766 5766 5765 5764 5763 5763 5762 5762 5761 5761 5760 5758 5757 5756 5754 5753 5750 5748 5746 5744 5742 5739 5736 5733 5730 5728 5726 5723 5720 5717 5714 5710 5708 5705 5702 5700 5697
5768 5767 5766 5766 5765 5764 5762 5761 5760 5760 5759 5758 5758 5757 5757 5756 5755 5754 5752 5751 5749 5748 5745 5743 5741 5738 5736 5733 5730 5728 5725 5722 5719 5716 5713 5710 5707 5703 5700 5697 5694 5692 5689
5764 5764 5763 5762 5761 5760 5758 5757 5756 5755 5754 5753 5753 5752 5752 5751 5750 5749 5747 5746 5744 5742 5740 5738 5735 5733 5730 5727 5724 5722 5719 5716 5713 5710 5707 5703 5700 5697 5693 5690 5687 5684 5682
5761 5760 5759 5758 5757 5756 5754 5753 5752 5750 5749 5749 5748 5747 5747 5746 5745 5743 5742 5740 5738 5737 5735 5733 5730 5727 5725 5722 5719 5716 5713 5709 5706 5704 5700 5697 5694 5690 5687 5683 5680 5676 5674
5756 5755 5755 5754 5753 5752 5750 5749 5747 5746 5745 5744 5743 5742 5741 5740 5739 5737 5736 5734 5733 5731 5729 5727 5725 5722 5719 5716 5713 5710 5707 5703 5700 5697 5694 5691 5687 5684 5680 5677 5673 5670 5667
5751 5751 5750 5749 5749 5747 5746 5745 5743 5742 5740 5739 5737 5736 5735 5734 5733 5731 5729 5728 5726 5725 5723 5721 5718 5716 5713 5710 5707 5704 5701 5698 5694 5691 5688 5684 5681 5678 5674 5671 5667 5664 5661
5746 5746 5745 5744 5744 5742 5741 5739 5738 5736 5735 5733 5732 5731 5730 5728 5726 5725 5723 5722 5720 5718 5717 5715 5712 5709 5706 5703 5701 5698 5695 5692 5689 5685 5682 5679 5675 5672 5668 5665 5661 5658 5654
5742 5741 5740 5739 5738 5737 5736 5735 5733 5732 5730 5729 5727 5726 5724 5723 5721 5719 5718 5716 5714 5712 5710 5708 5706 5703 5700 5697 5695 5692 5689 5686 5682 5679 5676 5672 5669 5666 5662 5659 5655 5651 5648
5737 5736 5735 5735 5734 5732 5731 5730 5728 5727 5726 5724 5722 5721 5719 5717 5716 5714 5712 5711 5709 5707 5704 5702 5699 5697 5694 5691 5688 5685 5682 5679 5676 5673 5670 5666 5663 5660 5656 5652 5649 5645 5641
5732 5731 5730 5729 5729 5727 5726 5725 5724 5722 5721 5719 5718 5716 5714 5713 5711 5709 5707 5705 5703 5701 5699 5696 5694 5691 5688 5685 5682 5679 5676 5673 5670 5667 5664 5660 5657 5654 5650 5647 5643 5639 5635
5726 5725 5725 5724 5724 5722 5721 5720 5719 5717 5716 5715 5713 5712 5710 5708 5706 5704 5702 5700 5698 5696 5693 5691 5688 5685 5683 5680 5676 5673 5670 5667 5664 5660 5657 5654 5651 5647 5644 5641 5637 5633 5629
5720 5720 5719 5718 5718 5717 5716 5715 5714 5713 5711 5710 5708 5707 5705 5704 5702 5700 5697 5695 5693 5691 5688 5686 5683 5680 5677 5674 5671 5667 5664 5661 5657 5654 5651 5648 5645 5641 5638 5634 5631 5627 5623
5715 5714 5713 5713 5712 5711 5710 5709 5708 5707 5706 5705 5703 5702 5700 5698 5696 5694 5692 5690 5688 5686 5683 5681 5678 5675 5672 5669 5665 5662 5658 5655 5652 5648 5645 5642 5639 5635 5632 5628 5624 5620 5616
5708 5708 5707 5707 5706 5705 5704 5704 5703 5702 5701 5699 5698 5696 5695 5693 5691 5689 5688 5685 5683 5681 5679 5676 5673 5670 5667 5664 5661 5657 5654 5650 5646 5643 5640 5636 5633 5629 5626 5622 5618 5614 5610
5702 5702 5701 5701 5700 5700 5699 5698 5698 5697 5695 5694 5692 5691 5689 5688 5686 5685 5683 5681 5679 5676 5674 5671 5668 5666 5663 5660 5656 5653 5649 5646 5642 5638 5634 5631 5627 5624 5620 5616 5612 5609 5605
5696 5696 5695 5695 5694 5694 5693 5693 5692 5691 5690 5689 5687 5686 5684 5683 5682 5680 5678 5676 5674 5671 5669 5667 5664 5661 5658 5655 5652 5648 5644 5641 5637 5633 5630 5626 5623 5619 5615 5611 5607 5603 5599
5690 5690 5689 5689 5689 5688 5688 5687 5687 5686 5685 5683 5682 5681 5680 5678 5677 5675 5673 5671 5669 5667 5664 5662 5659 5656 5654 5651 5647 5644 5640 5636 5633 5629 5625 5622 5619 5615 5611 5607 5603 5599 5595
5684 5684 5683 5683 5683 5683 5682 5682 5681 5680 5679 5678 5677 5676 5675 5674 5672 5671 5669 5667 5664 5662 5660 5657 5655 5652 5649 5646 5643 5639 5636 5632 5629 5625 5621 5618 5615 5611 5607 5603 5599 5595 5591
5678 5678 5678 5677 5677 5677 5677 5676 5675 5675 5674 5673 5672 5671 5670 5668 5667 5666 5664 5662 5660 5658 5655 5653 5650 5647 5645 5642 5638 5635 5631 5628 5625 5621 5618 5614 5611 5607 5603 5599 5595 5591 5587
5672 5672 5672 5672 5672 5672 5671 5671 5670 5669 5669 5668 5666 5665 5664 5663 5662 5660 5659 5657 5655 5653 5651 5648 5646 5643 5640 5637 5634 5631 5628 5624 5621 5617 5614 5610 5607 5603 5599 5595 5591 5588 5584
5667 5667 5667 5667 5667 5666 5666 5665 5664 5664 5663 5662 5661 5660 5659 5658 5657 5655 5654 5652 5650 5648 5646 5644 5641 5639 5636 5633 5630 5627 5624 5621 5617 5614 5610 5606 5603 5599 5595 5592 5588 5584 5580
5662 5662 5662 5662 5661 5661 5661 5660 5659 5658 5657 5657 5656 5655 5653 5652 5651 5650 5648 5647 5645 5643 5641 5639 5637 5635 5632 5629 5626 5623 5620 5617 5614 5610 5607 5603 5599 5595 5592 5588 5585 5581 5577
5656 5656 5656 5656 5656 5655 5655 5654 5654 5653 5652 5651 5650 5649 5648 5646 5645 5644 5643 5641 5640 5638 5636 5634 5632 5630 5628 5625 5623 5620 5617 5614 5611 5607 5604 5600 5596 5592 5589 5585 5582 5578 5574